This is the latest recevied weather packets stored in our database for station/object KC5DAQ-27. If no packets are shown the sender has not sent any weather packets the latest 1 day(s).
| Time | Temp. | Humidity | Pressure | Rain* | Wind** | Luminosity | Snow |
|---|---|---|---|---|---|---|---|
| 1778002887 | 26.11° C | 86% | 1000.7 hPa | 0 mm | 3.58 m/s, 192° | 487 W/m² | - |
| 1778002826 | 26.11° C | 86% | 1000.8 hPa | 0 mm | 4.02 m/s, 212° | 447 W/m² | - |
| 1778002765 | 26.11° C | 86% | 1000.8 hPa | 0 mm | 3.58 m/s, 199° | 378 W/m² | - |
| 1778002702 | 26.11° C | 86% | 1000.8 hPa | 0 mm | 3.58 m/s, 190° | 364 W/m² | - |
| 1778002640 | 26.11° C | 86% | 1000.7 hPa | 0 mm | 3.13 m/s, 204° | 362 W/m² | - |
| 1778002579 | 26.11° C | 86% | 1000.7 hPa | 0 mm | 3.13 m/s, 213° | 382 W/m² | - |
| 1778002517 | 26.11° C | 86% | 1000.8 hPa | 0 mm | 4.02 m/s, 212° | 385 W/m² | - |
| 1778002456 | 26.11° C | 86% | 1000.8 hPa | 0 mm | 4.02 m/s, 189° | 278 W/m² | - |
| 1778002394 | 26.11° C | 86% | 1000.8 hPa | 0 mm | 3.58 m/s, 179° | 232 W/m² | - |
| 1778002333 | 26.11° C | 86% | 1000.8 hPa | 0 mm | 4.02 m/s, 197° | 193 W/m² | - |
| 1778002271 | 26.11° C | 86% | 1000.8 hPa | 0 mm | 4.92 m/s, 188° | 185 W/m² | - |
| 1778002210 | 26.67° C | 86% | 1000.8 hPa | 0 mm | 4.02 m/s, 0° | 174 W/m² | - |
| 1778002148 | 26.67° C | 86% | 1000.8 hPa | 0 mm | 2.68 m/s, 0° | 204 W/m² | - |
| 1778002092 | 26.67° C | 86% | 1000.8 hPa | 0 mm | 2.24 m/s, 0° | 236 W/m² | - |
| 1778002024 | 26.11° C | 87% | 1000.8 hPa | 0 mm | 2.24 m/s, 0° | 274 W/m² | - |
| 1778001963 | 26.11° C | 87% | 1000.8 hPa | 0 mm | 2.68 m/s, 0° | 336 W/m² | - |
| 1778001904 | 26.11° C | 87% | 1000.8 hPa | 0 mm | 2.24 m/s, 0° | 383 W/m² | - |
| 1778001842 | 26.11° C | 87% | 1000.8 hPa | 0 mm | 2.24 m/s, 0° | 334 W/m² | - |
| 1778001782 | 26.11° C | 87% | 1000.8 hPa | 0 mm | 1.79 m/s, 0° | 371 W/m² | - |
| 1778001723 | 26.11° C | 87% | 1000.9 hPa | 0 mm | 2.24 m/s, 0° | 411 W/m² | - |
| 1778001662 | 26.11° C | 87% | 1000.8 hPa | 0 mm | 3.13 m/s, 0° | 450 W/m² | - |
| 1778001604 | 26.11° C | 87% | 1001 hPa | 0 mm | 2.68 m/s, 0° | 478 W/m² | - |
| 1778001544 | 26.11° C | 87% | 1000.9 hPa | 0 mm | 2.24 m/s, 0° | 520 W/m² | - |
| 1778001482 | 26.11° C | 88% | 1000.9 hPa | 0 mm | 2.68 m/s, 0° | 528 W/m² | - |
| 1778001422 | 26.11° C | 88% | 1000.8 hPa | 0 mm | 2.68 m/s, 0° | 506 W/m² | - |
* Rain latest hour (hover to see other rain measurements)
** Current wind speed in m/s (hover to see current wind gust speed)